Location: ????????
(55.7667°N, 37.4833°E)
Time: 14:54:07
(UTC+00:00)

USA 229 DEB - Pass Details

Date: 19 May 2025
Orbit: 872 x 1339 km, 63.4° (Epoch: 17 June)

Event Time Altitude Azimuth Distance (km) Brightness Sun altitude
Exits shadow 21:33:21 18° 203° (SSW) 2,157 4.8 -14.2°
Maximum altitude 21:37:59 58° 130° (SE) 1,164 3.7 -14.2°
Drops below altitude 10° 21:44:44 10° 53° (NE) 2,957 6.6 -14.2°
Sets 21:47:36 0° 50° (NE) 3,991 7.4 -14.1°
